Time,TemperatureF,DewpointF,PressureIn,WindDirection,WindDirectionDegrees,WindSpeedMPH,WindSpeedGustMPH,Humidity,HourlyPrecipIn,Conditions,Clouds,dailyrainin,SoftwareType,DateUTC
2013-08-15 00:11:00,53.0,42.0,29.89,NW,312,2.0,4.0,65,0.00,,,0.00,,2013-08-15 06:11:00,
2013-08-15 00:21:00,53.0,41.0,29.89,WNW,294,3.0,5.0,64,0.00,,,0.00,,2013-08-15 06:21:00,
2013-08-15 00:42:00,49.0,41.0,29.89,WNW,299,3.0,5.0,74,0.00,,,0.00,,2013-08-15 06:42:00,
2013-08-15 00:52:00,52.0,41.0,29.88,NW,306,2.0,5.0,65,0.00,,,0.00,,2013-08-15 06:52:00,
2013-08-15 01:11:00,54.0,41.0,29.87,NW,310,2.0,4.0,61,0.00,,,0.00,,2013-08-15 07:11:00,
2013-08-15 01:21:00,54.0,40.0,29.86,NW,315,2.0,5.0,60,0.00,,,0.00,,2013-08-15 07:21:00,
2013-08-15 01:41:00,56.0,41.0,29.85,NW,312,3.0,10.0,57,0.00,,,0.00,,2013-08-15 07:41:00,
2013-08-15 01:52:00,56.0,40.0,29.85,NNE,13,2.0,5.0,55,0.00,,,0.00,,2013-08-15 07:52:00,
2013-08-15 02:11:00,57.0,40.0,29.85,SW,215,3.0,6.0,52,0.00,,,0.00,,2013-08-15 08:11:00,
2013-08-15 02:21:00,57.0,37.0,29.85,West,260,1.0,6.0,47,0.00,,,0.00,,2013-08-15 08:21:00,
2013-08-15 02:41:00,55.0,37.0,29.85,NW,310,1.0,4.0,51,0.00,,,0.00,,2013-08-15 08:41:00,
2013-08-15 02:52:00,53.0,35.0,29.84,NW,315,2.0,4.0,51,0.00,,,0.00,,2013-08-15 08:52:00,
2013-08-15 03:11:00,51.0,36.0,29.84,WNW,294,3.0,7.0,57,0.00,,,0.00,,2013-08-15 09:11:00,
2013-08-15 03:21:00,51.0,34.0,29.84,WNW,290,1.0,3.0,53,0.00,,,0.00,,2013-08-15 09:21:00,
2013-08-15 03:42:00,52.0,33.0,29.85,SSE,156,0.0,2.0,48,0.00,,,0.00,,2013-08-15 09:42:00,
2013-08-15 03:53:00,54.0,32.0,29.85,West,262,1.0,5.0,43,0.00,,,0.00,,2013-08-15 09:53:00,
2013-08-15 04:12:00,54.0,33.0,29.84,NE,46,0.0,5.0,44,0.00,,,0.00,,2013-08-15 10:12:00,
2013-08-15 04:22:00,55.0,32.0,29.84,WNW,285,1.0,3.0,42,0.00,,,0.00,,2013-08-15 10:22:00,
2013-08-15 04:42:00,56.0,31.0,29.83,NNE,20,0.0,2.0,39,0.00,,,0.00,,2013-08-15 10:42:00,
2013-08-15 04:52:00,58.0,31.0,29.83,NNW,339,2.0,7.0,35,0.00,,,0.00,,2013-08-15 10:52:00,
2013-08-15 05:11:00,59.0,31.0,29.83,WNW,293,3.0,8.0,34,0.00,,,0.00,,2013-08-15 11:11:00,
2013-08-15 05:22:00,61.0,30.0,29.83,WNW,291,6.0,13.0,31,0.00,,,0.00,,2013-08-15 11:22:00,
2013-08-15 05:52:00,62.0,31.0,29.82,West,269,7.0,11.0,31,0.00,,,0.00,,2013-08-15 11:52:00,
2013-08-15 06:11:00,62.0,30.0,29.82,WNW,283,5.0,15.0,30,0.00,,,0.00,,2013-08-15 12:11:00,
2013-08-15 06:42:00,62.0,30.0,29.83,WNW,287,8.0,15.0,30,0.00,,,0.00,,2013-08-15 12:42:00,
2013-08-15 06:52:00,62.0,30.0,29.83,NW,324,5.0,14.0,30,0.00,,,0.00,,2013-08-15 12:52:00,
2013-08-15 07:11:00,62.0,30.0,29.83,WNW,283,8.0,14.0,30,0.00,,,0.00,,2013-08-15 13:11:00,
2013-08-15 07:21:00,62.0,31.0,29.84,North,358,4.0,8.0,31,0.00,,,0.00,,2013-08-15 13:21:00,
2013-08-15 07:42:00,62.0,31.0,29.83,North,9,2.0,7.0,31,0.00,,,0.00,,2013-08-15 13:42:00,
2013-08-15 07:52:00,63.0,31.0,29.83,West,274,4.0,10.0,30,0.00,,,0.00,,2013-08-15 13:52:00,
2013-08-15 08:12:00,64.0,31.0,29.83,WNW,291,6.0,13.0,29,0.00,,,0.00,,2013-08-15 14:12:00,
2013-08-15 08:22:00,65.0,31.0,29.83,West,271,6.0,15.0,28,0.00,,,0.00,,2013-08-15 14:22:00,
2013-08-15 09:13:00,67.0,32.0,29.83,WNW,291,9.0,15.0,27,0.00,,,0.00,,2013-08-15 15:13:00,
2013-08-15 09:23:00,68.0,33.0,29.83,WNW,289,10.0,21.0,27,0.00,,,0.00,,2013-08-15 15:23:00,
2013-08-15 09:43:00,68.0,31.0,29.83,WNW,285,13.0,20.0,25,0.00,,,0.00,,2013-08-15 15:43:00,
2013-08-15 09:54:00,69.0,32.0,29.83,West,277,9.0,18.0,25,0.00,,,0.00,,2013-08-15 15:54:00,
2013-08-15 10:26:00,70.0,32.0,29.83,WNW,300,7.0,17.0,24,0.00,,,0.00,,2013-08-15 16:26:00,
2013-08-15 11:30:00,72.0,-99.9,29.83,NNW,338,7.0,13.0,25,0.00,,,0.00,,2013-08-15 17:30:00,
2013-08-15 11:54:00,71.0,42.0,29.82,SSE,152,2.0,10.0,35,0.00,,,0.00,,2013-08-15 17:54:00,
2013-08-15 12:00:00,-999.0,-99.9,29.82,West,270,2.0,6.0,-999,-99.99,,,-99.99,,2013-08-15 18:00:00,
2013-08-15 12:26:00,72.0,34.0,29.82,ENE,58,3.0,13.0,25,0.00,,,0.00,,2013-08-15 18:26:00,
2013-08-15 12:35:00,-999.0,-99.9,29.81,WNW,300,3.0,12.0,-999,0.00,,,0.00,,2013-08-15 18:35:00,
2013-08-15 12:49:00,73.0,41.0,29.80,ENE,67,2.0,8.0,31,0.00,,,0.00,,2013-08-15 18:49:00,
2013-08-15 13:06:00,-999.0,-99.9,29.81,South,177,2.0,7.0,-999,0.00,,,0.00,,2013-08-15 19:06:00,
2013-08-15 13:34:00,-999.0,-99.9,29.80,SE,131,3.0,8.0,-999,-99.99,,,-99.99,,2013-08-15 19:34:00,
2013-08-15 13:49:00,73.0,35.0,29.80,NE,48,3.0,8.0,25,0.00,,,0.00,,2013-08-15 19:49:00,
2013-08-15 14:16:00,72.0,37.0,29.79,SE,128,7.0,11.0,28,0.00,,,0.00,,2013-08-15 20:16:00,
2013-08-15 15:01:00,71.0,40.0,29.78,SE,134,9.0,12.0,32,0.00,,,0.00,,2013-08-15 21:01:00,
2013-08-15 15:17:00,73.0,41.0,29.78,South,179,7.0,11.0,32,0.00,,,0.00,,2013-08-15 21:17:00,
2013-08-15 15:57:00,71.0,42.0,29.78,SE,127,5.0,14.0,35,0.00,,,0.00,,2013-08-15 21:57:00,
2013-08-15 16:17:00,71.0,43.0,29.77,SE,141,7.0,15.0,37,0.00,,,0.00,,2013-08-15 22:17:00,
2013-08-15 16:29:00,72.0,43.0,29.77,West,281,2.0,9.0,35,0.00,,,0.00,,2013-08-15 22:29:00,
2013-08-15 16:58:00,70.0,42.0,29.79,ESE,120,2.0,8.0,36,0.00,,,0.00,,2013-08-15 22:58:00,
2013-08-15 17:07:00,70.0,42.0,29.79,ESE,120,2.0,8.0,36,0.00,,,0.00,,2013-08-15 23:07:00,
2013-08-15 17:16:00,70.0,42.0,29.79,ESE,120,2.0,8.0,36,0.00,,,0.00,,2013-08-15 23:16:00,
2013-08-15 17:34:00,-999.0,-99.9,29.79,SE,139,5.0,10.0,34,0.00,,,0.00,,2013-08-15 23:34:00,
2013-08-15 17:48:00,71.0,43.0,29.78,SSE,162,5.0,11.0,36,0.00,,,0.00,,2013-08-15 23:48:00,
2013-08-15 17:55:00,71.0,43.0,29.78,SSE,162,5.0,11.0,36,0.00,,,0.00,,2013-08-15 23:55:00,
2013-08-15 18:12:00,72.0,41.0,29.80,NNE,29,5.0,13.0,33,0.00,,,0.00,,2013-08-16 00:12:00,
2013-08-15 18:24:00,72.0,41.0,29.80,NNE,29,5.0,13.0,33,0.00,,,0.00,,2013-08-16 00:24:00,
2013-08-15 18:46:00,71.0,40.0,29.79,SE,136,4.0,8.0,33,0.00,,,0.00,,2013-08-16 00:46:00,
2013-08-15 18:52:00,71.0,40.0,29.79,SE,136,4.0,8.0,33,0.00,,,0.00,,2013-08-16 00:52:00,
2013-08-15 19:19:00,70.0,41.0,29.79,SW,219,2.0,6.0,35,0.00,,,0.00,,2013-08-16 01:19:00,
2013-08-15 19:26:00,69.0,41.0,29.80,SE,134,0.0,3.0,36,0.00,,,0.00,,2013-08-16 01:26:00,
2013-08-15 19:43:00,-999.0,-99.9,29.80,ESE,120,0.0,-999.0,-999,-99.99,,,-99.99,,2013-08-16 01:43:00,
2013-08-15 19:54:00,67.0,43.0,29.80,South,188,0.0,1.0,42,0.00,,,0.00,,2013-08-16 01:54:00,
2013-08-15 20:12:00,66.0,43.0,29.80,South,188,0.0,0.0,44,0.00,,,0.00,,2013-08-16 02:12:00,
2013-08-15 20:21:00,64.0,44.0,29.80,WNW,300,2.0,4.0,49,0.00,,,0.00,,2013-08-16 02:21:00,
2013-08-15 20:43:00,64.0,43.0,29.82,NW,310,1.0,3.0,47,0.00,,,0.00,,2013-08-16 02:43:00,
2013-08-15 20:52:00,62.0,43.0,29.83,WNW,298,3.0,6.0,50,0.00,,,0.00,,2013-08-16 02:52:00,
2013-08-15 21:11:00,61.0,44.0,29.83,NW,312,2.0,6.0,53,0.00,,,0.00,,2013-08-16 03:11:00,
2013-08-15 21:22:00,59.0,42.0,29.84,NW,315,0.0,4.0,54,0.00,,,0.00,,2013-08-16 03:22:00,
2013-08-15 21:43:00,59.0,42.0,29.84,WNW,291,2.0,5.0,54,0.00,,,0.00,,2013-08-16 03:43:00,
2013-08-15 21:53:00,59.0,42.0,29.85,West,280,3.0,8.0,53,0.00,,,0.00,,2013-08-16 03:53:00,
2013-08-15 22:13:00,57.0,41.0,29.85,WNW,294,3.0,7.0,55,0.00,,,0.00,,2013-08-16 04:13:00,
2013-08-15 22:23:00,57.0,41.0,29.86,NW,321,3.0,6.0,54,0.00,,,0.00,,2013-08-16 04:23:00,
2013-08-15 22:42:00,56.0,41.0,29.86,WNW,295,2.0,6.0,57,0.00,,,0.00,,2013-08-16 04:42:00,
2013-08-15 22:53:00,56.0,41.0,29.86,WNW,294,3.0,7.0,57,0.00,,,0.00,,2013-08-16 04:53:00,
2013-08-15 23:12:00,55.0,41.0,29.86,WNW,284,4.0,7.0,59,0.00,,,0.00,,2013-08-16 05:12:00,
2013-08-15 23:21:00,54.0,40.0,29.86,WNW,297,2.0,7.0,59,0.00,,,0.00,,2013-08-16 05:21:00,
2013-08-15 23:42:00,54.0,40.0,29.85,NW,311,2.0,6.0,60,0.00,,,0.00,,2013-08-16 05:42:00,
2013-08-15 23:58:00,54.0,40.0,29.85,WNW,302,3.0,6.0,60,0.00,,,0.00,,2013-08-16 05:58:00,